Alicia, AR

3:35 PM CST on February 12, 2016 (GMT -0600)
Walnut Ridge Regional

Weather History for KARG - February, 2013

Change the Weather History Date:

Saturday, February 9, 2013

  Actual Average Record
Temperature  
Mean Temperature 37 °F -  
Max Temperature 42 °F 47 °F 68 °F (2009)
Min Temperature 32 °F 32 °F 17 °F (2011)
Degree Days  
Heating Degree Days 28    
Moisture  
Dew Point 32 °F    
Average Humidity 81    
Maximum Humidity 93    
Minimum Humidity 70    
Precipitation  
Precipitation 0.00 in - - ()
Sea Level Pressure  
Sea Level Pressure 30.25 in    
Wind  
Wind Speed 8 mph (ENE)    
Max Wind Speed 13 mph    
Max Gust Speed -    
Visibility 10 miles    
Events      
Averages and records for this station are not official NWS values.
T = Trace of Precipitation, MM = Missing Value Source: NWS Daily Summary

Daily Weather History Graph

Daily Weather History Graph

Search for Another Location

Airport or City:

Trip Planner

Search our weather history database for the weather conditions in past years. The results will help you decide how hot, cold, wet, or windy it might be!

Date:

Astronomy

Feb. 09, 2013 Rise Set
Actual Time 6:57 AM CST 5:39 PM CST
Civil Twilight 6:30 AM CST 6:05 PM CST
Nautical Twilight 6:00 AM CST 6:36 PM CST
Astronomical Twilight 5:30 AM CST 7:05 PM CST
Moon 6:09 AM CST (2/9) 5:20 PM CST (2/9)
Length of Visible Light 11h 35m
Length of Day
10h 42m
Waning Crescent, 0% of the Moon is Illuminated
Feb 9
Waning Crescent
Feb 10
New
Feb 17
First Quarter
Feb 25
Full
Mar 4
Last Quarter

Hourly Weather History & Observations

Time (CST) Temp. Windchill Dew Point Humidity Pressure Visibility Wind Dir Wind Speed Gust Speed Precip Events Conditions
12:15 AM 33.8 °F 27.0 °F 30.2 °F 87% 30.33 in 10.0 mi NE 8.1 mph - N/A   Clear
12:35 AM 33.8 °F 27.0 °F 30.2 °F 87% 30.33 in 9.0 mi NE 8.1 mph - N/A   Clear
1:15 AM 33.8 °F 26.4 °F 30.2 °F 87% 30.32 in 10.0 mi NE 9.2 mph - N/A   Clear
1:35 AM 33.8 °F 26.4 °F 30.2 °F 87% 30.32 in 10.0 mi NE 9.2 mph - N/A   Clear
2:15 AM 32.0 °F 25.6 °F 28.4 °F 87% 30.33 in 10.0 mi NE 6.9 mph - N/A   Clear
2:55 AM 32.0 °F 24.8 °F 30.2 °F 93% 30.33 in 10.0 mi NE 8.1 mph - N/A   Clear
3:16 AM 32.0 °F 25.6 °F 28.4 °F 87% 30.34 in 10.0 mi NE 6.9 mph - N/A   Scattered Clouds
3:35 AM 33.8 °F 27.0 °F 30.2 °F 87% 30.34 in 10.0 mi NE 8.1 mph - N/A   Overcast
3:55 AM 33.8 °F 24.8 °F 30.2 °F 87% 30.33 in 10.0 mi ENE 12.7 mph - N/A   Overcast
4:15 AM 33.8 °F 24.8 °F 28.4 °F 81% 30.34 in 10.0 mi ENE 12.7 mph - N/A   Overcast
4:36 AM 33.8 °F 24.8 °F 28.4 °F 81% 30.34 in 10.0 mi ENE 12.7 mph - N/A   Overcast
4:55 AM 33.8 °F 25.8 °F 28.4 °F 81% 30.35 in 10.0 mi ENE 10.4 mph - N/A   Overcast
5:15 AM 33.8 °F 26.4 °F 28.4 °F 81% 30.34 in 10.0 mi ENE 9.2 mph - N/A   Overcast
5:55 AM 33.8 °F 26.4 °F 28.4 °F 81% 30.34 in 10.0 mi ENE 9.2 mph - N/A   Overcast
6:15 AM 33.8 °F 27.0 °F 28.4 °F 81% 30.35 in 10.0 mi ENE 8.1 mph - N/A   Overcast
6:35 AM 33.8 °F 27.0 °F 28.4 °F 81% 30.35 in 10.0 mi ENE 8.1 mph - N/A   Overcast
6:56 AM 33.8 °F 27.7 °F 28.4 °F 81% 30.35 in 10.0 mi ENE 6.9 mph - N/A   Overcast
7:15 AM 33.8 °F 25.8 °F 28.4 °F 81% 30.34 in 10.0 mi ENE 10.4 mph - N/A   Overcast
7:35 AM 33.8 °F 26.4 °F 30.2 °F 87% 30.34 in 10.0 mi ENE 9.2 mph - N/A   Overcast
7:55 AM 33.8 °F 24.8 °F 28.4 °F 81% 30.33 in 10.0 mi East 12.7 mph - N/A   Overcast
8:15 AM 33.8 °F 25.3 °F 28.4 °F 81% 30.34 in 10.0 mi East 11.5 mph - N/A   Overcast
8:35 AM 33.8 °F 24.8 °F 28.4 °F 81% 30.35 in 10.0 mi ENE 12.7 mph - N/A   Overcast
8:55 AM 33.8 °F 27.0 °F 28.4 °F 81% 30.36 in 10.0 mi East 8.1 mph - N/A   Overcast
9:35 AM 35.6 °F 28.0 °F 30.2 °F 81% 30.34 in 10.0 mi ENE 10.4 mph - N/A   Overcast
9:55 AM 35.6 °F 28.6 °F 30.2 °F 81% 30.35 in 10.0 mi East 9.2 mph - N/A   Overcast
10:15 AM 35.6 °F 29.9 °F 30.2 °F 81% 30.34 in 10.0 mi ENE 6.9 mph - N/A   Overcast
10:36 AM 35.6 °F 28.6 °F 30.2 °F 81% 30.33 in 10.0 mi ENE 9.2 mph - N/A   Overcast
10:55 AM 35.6 °F 29.2 °F 30.2 °F 81% 30.32 in 10.0 mi East 8.1 mph - N/A   Mostly Cloudy
11:15 AM 37.4 °F 31.4 °F 30.2 °F 75% 30.32 in 10.0 mi NE 8.1 mph - N/A   Mostly Cloudy
11:55 AM 37.4 °F 32.8 °F 30.2 °F 75% 30.29 in 10.0 mi ENE 5.8 mph - N/A   Overcast
12:15 PM 37.4 °F - 32.0 °F 81% 30.29 in 10.0 mi Calm Calm - N/A   Overcast
12:35 PM 39.2 °F 37.0 °F 32.0 °F 75% 30.27 in 10.0 mi NE 3.5 mph - N/A   Overcast
1:15 PM 39.2 °F 37.0 °F 32.0 °F 75% 30.24 in 10.0 mi East 3.5 mph - N/A   Partly Cloudy
1:35 PM 41.0 °F 35.8 °F 32.0 °F 70% 30.22 in 10.0 mi ENE 8.1 mph - N/A   Scattered Clouds
1:55 PM 41.0 °F 36.4 °F 32.0 °F 70% 30.20 in 10.0 mi ENE 6.9 mph - N/A   Partly Cloudy
2:16 PM 42.8 °F 38.6 °F 33.8 °F 70% 30.20 in 10.0 mi East 6.9 mph - N/A   Clear
2:35 PM 42.8 °F 37.5 °F 33.8 °F 70% 30.18 in 10.0 mi East 9.2 mph - N/A   Clear
3:15 PM 42.8 °F 38.0 °F 33.8 °F 70% 30.17 in 10.0 mi East 8.1 mph - N/A   Clear
3:35 PM 42.8 °F 38.0 °F 33.8 °F 70% 30.17 in 10.0 mi East 8.1 mph - N/A   Clear
3:55 PM 42.8 °F 37.5 °F 33.8 °F 70% 30.17 in 9.0 mi East 9.2 mph - N/A   Clear
4:55 PM 42.8 °F 37.5 °F 35.6 °F 76% 30.14 in 10.0 mi East 9.2 mph - N/A   Partly Cloudy
5:15 PM 42.8 °F 37.0 °F 35.6 °F 76% 30.13 in 10.0 mi East 10.4 mph - N/A   Clear
6:15 PM 42.8 °F 38.0 °F 35.6 °F 76% 30.11 in 10.0 mi East 8.1 mph - N/A   Scattered Clouds
6:35 PM 42.8 °F 38.6 °F 37.4 °F 81% 30.12 in 10.0 mi East 6.9 mph - N/A   Mostly Cloudy
7:35 PM 42.8 °F 40.1 °F 39.2 °F 87% 30.11 in 8.0 mi NE 4.6 mph - N/A   Scattered Clouds
8:15 PM 42.8 °F 39.3 °F 37.4 °F 81% 30.11 in 8.0 mi North 5.8 mph - N/A   Overcast
8:35 PM 42.8 °F 40.1 °F 37.4 °F 81% 30.11 in 8.0 mi North 4.6 mph - N/A   Overcast
9:15 PM 42.8 °F 39.3 °F 39.2 °F 87% 30.08 in 8.0 mi NNE 5.8 mph - N/A   Overcast
9:35 PM 42.8 °F 39.3 °F 37.4 °F 81% 30.07 in 8.0 mi NE 5.8 mph - N/A   Mostly Cloudy
9:55 PM 42.8 °F 38.0 °F 39.2 °F 87% 30.06 in 7.0 mi NE 8.1 mph - N/A   Overcast
10:15 PM 42.8 °F 38.0 °F 39.2 °F 87% 30.05 in 7.0 mi NE 8.1 mph - N/A   Overcast
10:35 PM 42.8 °F 39.3 °F 37.4 °F 81% 30.05 in 8.0 mi East 5.8 mph - N/A   Overcast
10:55 PM 42.8 °F 40.1 °F 37.4 °F 81% 30.04 in 9.0 mi ENE 4.6 mph - N/A   Overcast
11:55 PM 42.8 °F 40.1 °F 39.2 °F 87% 30.03 in 9.0 mi NE 4.6 mph - N/A   Overcast